CAPE
37 0 7 73 59 77 0 0 0 0 0 16 27 11 10 103 1 0 518 677 871 1200 1377 1356 1625 1045 885 356 397 1013 1196 1635 1722 1706 1411 893 780 498 167 9 9 11 70 35 88 239 200 133 10
32 28 157 70 38 0 0 0 0 0 0 0 17 186 177 10 660 937 957 969 1019 1268 1288 1273 1478 1056 734 314 349 997 1066 1301 1401 1405 1354 1056 580 132 8 8 9 18 133 209 261 285 116 141 87
0 21 9 100 45 0 0 0 0 0 0 0 0 66 339 220 807 992 1088 1143 1286 1250 1208 1261 1348 1128 807 541 499 864 1029 1119 1089 1116 1055 822 194 21 5 6 12 87 298 508 294 175 88 13 1
4 57 14 47 77 25 0 0 0 0 0 0 0 9 72 691 914 1183 1206 1272 1219 1196 1191 1378 1335 1166 890 709 686 701 893 897 931 1065 790 507 20 6 5 8 37 191 510 446 112 110 123 0 0
39 32 1 2 1 43 4 0 0 0 0 0 79 0 0 1185 1129 1407 1393 1227 1207 1157 1275 1153 1387 1241 973 882 683 685 793 659 936 825 512 103 10 8 10 9 110 361 609 281 82 114 95 28 0
93 79 21 0 0 32 28 0 0 0 0 46 603 76 52 998 1363 1527 1381 1179 1371 1026 1020 1013 999 982 886 671 568 499 525 585 676 569 107 20 10 9 8 18 246 541 357 195 70 75 63 21 0
10 93 11 0 0 5 2 1 1 0 0 0 475 418 829 1638 1422 1441 1290 1229 1092 996 820 737 657 707 642 648 446 279 260 279 223 190 92 17 15 46 42 207 424 538 475 401 183 51 41 31 3
27 36 31 0 0 0 1 18 1 0 0 119 896 493 1083 1771 1400 1382 1117 1137 942 788 700 615 575 731 436 358 382 156 60 64 75 29 12 5 8 99 416 244 382 534 489 385 270 84 34 37 16
46 61 20 5 0 0 13 2 11 0 0 5 909 718 964 1904 1452 828 939 1025 857 631 576 577 590 689 446 347 386 168 24 13 11 8 0 0 6 38 45 57 96 235 319 167 69 22 16 9 0
29 14 2 0 0 0 1 63 25 1 0 131 934 1210 1820 1945 1731 1054 683 829 849 639 637 601 544 573 499 425 418 118 1 0 0 0 0 0 0 0 0 0 76 179 125 93 46 0 0 0 0
14 0 0 0 0 6 5 88 57 21 19 5 790 1424 1858 1737 1614 1145 678 868 867 698 695 613 506 490 502 351 281 203 12 0 0 0 0 0 0 0 0 0 0 0 0 0 0 0 0 0 0
3 0 0 0 0 14 44 100 80 7 0 0 38 1434 1717 1928 1557 1197 1030 882 812 669 774 642 514 480 459 332 387 553 96 0 0 0 0 0 0 0 0 0 0 0 0 0 0 0 0 0 0
3 0 0 0 0 11 56 58 54 32 3 0 2 924 1108 1478 998 1118 1056 841 771 570 686 770 563 502 473 318 273 299 231 119 0 0 0 0 0 0 0 0 0 0 0 0 0 0 0 0 0
9 0 0 0 0 13 57 21 25 0 5 5 400 960 1005 1195 936 845 698 650 562 544 790 892 650 542 527 376 248 146 167 142 93 0 0 0 0 0 0 0 0 0 0 0 0 0 0 0 0
0 0 0 4 0 1 71 12 0 0 0 12 98 699 916 1211 1014 799 655 451 218 234 850 959 761 643 589 423 256 56 55 180 159 88 16 0 0 0 0 0 0 0 0 0 2 5 20 32 25
0 0 0 2 0 7 10 0 6 0 6 7 74 643 729 673 747 940 867 588 414 700 1033 1031 879 837 621 401 235 64 0 0 35 86 72 48 36 45 12 7 32 16 13 10 17 31 30 30 7
0 29 9 33 0 5 7 0 3 0 22 21 389 440 464 419 582 712 856 790 796 901 1098 1035 858 817 730 509 235 89 12 19 47 8 18 72 90 100 128 106 74 69 54 52 55 60 55 54 22
0 0 0 20 0 2 8 0 0 0 0 64 334 370 388 370 349 413 506 670 1011 1056 1101 1077 890 881 767 443 277 281 168 61 107 17 0 4 21 33 137 162 146 97 94 101 101 108 95 55 8
0 0 0 7 59 11 35 0 0 0 0 96 249 242 210 239 193 219 378 362 428 702 938 1120 917 846 785 500 396 361 290 176 207 161 148 122 63 10 5 20 122 136 108 112 164 127 86 12 0
0 3 1 9 31 49 11 0 0 0 0 113 111 140 96 106 130 173 285 426 428 379 434 442 634 811 851 724 562 397 348 304 414 436 325 300 286 159 104 84 40 40 54 107 142 77 31 5 0
12 5 4 24 108 62 6 1 0 0 0 8 76 70 60 61 75 91 105 374 524 458 496 468 229 547 595 480 442 363 317 382 582 546 331 214 257 376 251 268 198 165 146 99 59 16 11 17 39
1 4 30 117 33 0 0 11 0 0 0 0 115 27 22 27 1 57 76 153 410 500 440 335 171 185 420 471 447 163 234 409 499 391 246 158 178 447 430 323 266 188 184 114 56 67 54 45 48
7 0 3 10 17 42 0 0 0 0 1 0 1 1 0 0 0 8 65 103 175 386 440 381 324 269 128 370 183 49 153 437 395 444 404 343 318 407 448 409 395 294 203 184 146 144 139 105 53
0 0 12 8 8 0 0 0 0 0 0 0 0 48 14 6 1 0 0 7 107 155 181 114 294 181 463 384 364 185 204 258 188 253 409 573 611 581 424 280 274 119 170 258 275 164 183 122 80
0 0 0 0 0 0 0 0 0 0 0 0 0 0 2 3 11 6 3 0 0 72 350 341 387 361 398 346 312 278 320 278 389 312 431 452 367 325 319 323 329 147 68 75 118 167 99 54 41
0 0 0 0 0 0 0 0 0 0 0 0 0 1 2 4 16 3 0 3 1 9 342 514 651 579 478 435 478 520 517 520 563 557 430 414 428 303 146 50 19 16 20 24 31 29 35 24 16
0 2 0 0 0 0 0 0 0 0 0 0 0 0 3 0 3 7 2 0 0 9 331 535 574 644 582 560 601 663 682 689 601 438 243 173 108 60 148 158 43 1 0 0 0 0 6 11 17
2 0 6 0 0 0 0 0 0 0 0 0 0 0 0 0 1 0 0 0 0 8 345 441 556 595 414 424 501 554 588 514 467 318 129 52 50 0 0 0 0 0 0 0 0 4 15 25 24
10 10 2 0 0 0 0 0 0 0 0 0 0 0 0 0 0 0 0 6 0 1 195 388 467 481 380 324 465 514 527 507 404 231 53 0 0 0 0 0 0 0 3 0 1 1 0 3 11
12 0 0 0 0 0 0 0 0 0 0 0 0 0 0 0 0 0 0 0 0 0 111 335 377 381 336 324 368 436 499 465 313 197 30 0 0 0 0 0 2 0 0 0 0 0 0 0 0
CIN
-8 -0 -66 -31 -4 -1 -0 -0 -0 -0 -0 -41 -14 -16 -8 -55 -1 -0 -296 -273 -235 -90 -43 -32 -1 -2 -9 -93 -71 -0 -0 -0 -0 -0 -0 -1 -0 -3 -39 -0 -0 -0 -117 -175 -105 -37 -58 -81 -0
-15 -8 -18 -4 -1 -0 -0 -0 -0 -0 -0 -0 -37 -95 -84 -3 -186 -170 -195 -184 -160 -80 -46 -29 -11 -6 -27 -123 -80 -0 -0 -0 -0 -0 -0 -0 -6 -85 -0 -0 -0 -69 -87 -65 -36 -31 -88 -85 -36
-0 -15 -8 -0 -1 -0 -0 -0 -0 -0 -0 -0 -0 -62 -95 -49 -142 -163 -174 -158 -96 -68 -52 -29 -8 -5 -17 -55 -38 -0 -0 -0 -0 -0 -0 -0 -66 -201 -0 -0 -0 -125 -30 -4 -30 -58 -112 -3 -0
-12 -3 -14 -1 -1 -4 -0 -0 -0 -0 -0 -0 -0 -51 -94 -95 -97 -122 -129 -120 -93 -66 -51 -14 -2 -0 -2 -13 -5 -2 -0 -0 -0 -0 -1 -3 -251 -0 -0 -0 -190 -73 -6 -7 -112 -105 -95 -0 -0
-25 -3 -0 -0 -10 -4 -32 -0 -0 -0 -0 -0 -103 -0 -0 -71 -48 -64 -65 -103 -95 -71 -29 -20 -0 -0 -0 -0 -7 -6 -0 -0 -1 -3 -4 -128 -0 -0 -0 -0 -116 -21 -0 -39 -163 -118 -130 -51 -0
-2 -12 -0 -0 -0 -9 -57 -3 -0 -0 -0 -71 -43 -18 -111 -96 -32 -18 -38 -72 -40 -79 -52 -24 -13 -1 -0 -13 -16 -25 -16 -1 -4 -0 -124 -242 -0 -0 -0 -21 -40 -1 -22 -68 -175 -159 -86 -69 -0
-10 -0 -1 -0 -0 -25 -15 -14 -16 -0 -0 -0 -86 -42 -38 -6 -33 -1 -1 -21 -34 -39 -61 -56 -59 -13 -2 -7 -31 -59 -62 -34 -66 -73 -145 -53 -0 -169 -119 -55 -12 -7 -12 -17 -68 -203 -55 -64 -26
-4 -5 -0 -1 -0 -0 -3 -8 -35 -0 -0 -188 -77 -41 -4 -0 -23 -0 -2 -0 -23 -36 -54 -71 -64 -10 -41 -45 -33 -96 -150 -153 -164 -212 -3 -7 -5 -86 -14 -38 -22 -10 -12 -21 -51 -158 -83 -73 -104
-4 -1 -1 -1 -0 -0 -11 -5 -32 -0 -6 -135 -75 -94 -105 -1 -36 -2 -1 -0 -2 -32 -53 -59 -35 -4 -29 -35 -21 -72 -151 -127 -7 -10 -0 -0 -0 -64 -70 -141 -117 -42 -20 -59 -155 -100 -121 -86 -0
-3 -0 -0 -0 -0 -0 -3 -8 -3 -14 -1 -90 -66 -87 -39 -7 -7 -29 -0 -0 -1 -28 -33 -34 -17 -0 -3 -17 -21 -74 -25 -0 -0 -0 -0 -0 -0 -0 -0 -0 -123 -56 -83 -113 -149 -0 -0 -0 -0
-3 -0 -0 -0 -0 -9 -17 -3 -10 -16 -32 -45 -39 -54 -9 -17 -19 -19 -7 -7 -6 -8 -4 -6 -16 -1 -2 -25 -37 -44 -187 -0 -0 -0 -0 -0 -0 -0 -0 -0 -0 -0 -0 -0 -0 -0 -0 -0 -0
-0 -0 -0 -0 -0 -1 -10 -11 -17 -16 -0 -0 -89 -97 -4 -0 -0 -10 -0 -9 -1 -18 -0 -2 -20 -11 -6 -28 -25 -13 -78 -0 -0 -0 -0 -0 -0 -0 -0 -0 -0 -0 -0 -0 -0 -0 -0 -0 -0
-0 -0 -0 -0 -0 -3 -10 -0 -20 -5 -0 -40 -72 -73 -63 -0 -53 -41 -10 -40 -13 -234 -55 -0 -13 -13 -13 -39 -43 -24 -36 -95 -0 -0 -0 -0 -0 -0 -0 -0 -0 -0 -0 -0 -0 -0 -0 -0 -0
-1 -0 -0 -0 -0 -27 -0 -0 -0 -0 -17 -57 -44 -74 -56 -49 -77 -72 -44 -44 -22 -161 -108 -6 -14 -34 -32 -42 -42 -83 -75 -95 -117 -0 -0 -0 -0 -0 -0 -0 -0 -0 -0 -0 -0 -0 -0 -0 -0
-0 -0 -0 -4 -0 -2 -1 -2 -0 -0 -0 -26 -78 -41 -32 -62 -54 -117 -134 -115 -156 -159 -147 -22 -12 -38 -56 -52 -50 -148 -175 -95 -113 -149 -183 -0 -0 -0 -0 -0 -0 -0 -0 -0 -243 -203 -167 -136 -137
-6 -0 -0 -91 -0 -6 -0 -0 -0 -0 -20 -6 -97 -34 -41 -42 -21 -50 -50 -89 -112 -64 -20 -70 -29 -34 -48 -73 -85 -143 -0 -0 -199 -178 -187 -191 -199 -219 -244 -94 -198 -220 -256 -250 -229 -170 -133 -130 -172
-0 -6 -37 -9 -3 -6 -0 -0 -0 -0 -50 -25 -11 -23 -25 -39 -30 -16 -43 -50 -44 -34 -22 -47 -100 -48 -63 -43 -91 -125 -264 -223 -194 -276 -269 -221 -207 -208 -188 -194 -195 -178 -166 -152 -136 -114 -99 -98 -138
-0 -0 -3 -22 -0 -2 -0 -0 -0 -0 -0 -1 -0 -14 -30 -47 -44 -34 -15 -22 -33 -15 -8 -50 -52 -49 -15 -25 -40 -26 -66 -143 -149 -255 -0 -276 -290 -282 -190 -170 -164 -177 -156 -125 -109 -97 -83 -95 -144
-0 -0 -0 -11 -41 -4 -0 -0 -0 -0 -0 -2 -0 -4 -17 -36 -54 -42 -64 -27 -19 -28 -3 -21 -51 -50 -9 -17 -17 -35 -83 -85 -79 -125 -95 -120 -147 -264 -246 -240 -173 -158 -175 -143 -80 -76 -83 -133 -0
-8 -3 -0 -46 -5 -1 -0 -0 -2 -0 -11 -2 -1 -6 -12 -34 -40 -43 -36 -44 -40 -28 -17 -1 -44 -15 -9 -16 -13 -23 -71 -59 -20 -21 -75 -80 -85 -113 -145 -151 -151 -173 -153 -104 -67 -69 -91 -104 -23
-9 -4 -2 -19 -2 -1 -0 -1 -0 -0 -0 -37 -2 -13 -4 -7 -17 -24 -42 -27 -25 -21 -27 -12 -1 -13 -20 -36 -42 -50 -35 -34 -9 -23 -55 -84 -92 -69 -75 -53 -55 -58 -61 -76 -64 -85 -38 -17 -12
-6 -7 -2 -0 -24 -0 -3 -2 -0 -0 -0 -0 -13 -7 -0 -5 -6 -24 -29 -40 -59 -59 -42 -65 -41 -0 -11 -24 -39 -64 -16 -44 -29 -39 -39 -48 -79 -45 -17 -14 -12 -26 -38 -42 -24 -10 -4 -20 -32
-10 -1 -8 -11 -7 -0 -0 -0 -0 -0 -2 -0 -4 -0 -1 -0 -0 -26 -35 -48 -41 -31 -27 -25 -17 -2 -0 -13 -55 -174 -50 -23 -22 -27 -24 -45 -64 -46 -5 -0 -1 -0 -13 -11 -17 -17 -26 -16 -18
-0 -0 -0 -4 -10 -0 -0 -0 -0 -0 -0 -0 -0 -20 -3 -4 -1 -0 -0 -75 -83 -34 -85 -104 -48 -56 -14 -19 -8 -14 -30 -40 -15 -51 -59 -59 -55 -30 -15 -32 -12 -33 -7 -2 -4 -13 -14 -8 -10
-0 -0 -0 -1 -0 -0 -0 -0 -0 -0 -0 -0 -0 -0 -0 -8 -7 -23 -27 -3 -3 -147 -31 -43 -34 -30 -47 -52 -15 -28 -45 -33 -27 -41 -60 -47 -61 -77 -44 -45 -38 -50 -98 -53 -28 -20 -10 -5 -9
-0 -0 -0 -0 -0 -0 -0 -0 -0 -0 -0 -0 -0 -0 -2 -2 -1 -12 -0 -36 -43 -115 -76 -68 -69 -73 -65 -79 -56 -61 -44 -45 -46 -45 -51 -88 -64 -53 -94 -58 -124 -144 -86 -64 -35 -19 -5 -14 -0
-0 -4 -0 -0 -0 -0 -0 -0 -0 -0 -0 -0 -0 -0 -3 -1 -6 -2 -18 -0 -0 -149 -115 -70 -77 -66 -63 -70 -61 -53 -45 -41 -42 -46 -24 -101 -99 -112 -84 -63 -79 -12 -0 -0 -0 -0 -25 -25 -44
-4 -0 -3 -0 -0 -0 -0 -0 -0 -0 -0 -0 -0 -0 -0 -0 -6 -0 -0 -0 -0 -97 -126 -85 -88 -59 -63 -60 -59 -46 -31 -37 -32 -30 -39 -105 -87 -0 -0 -0 -0 -0 -0 -0 -0 -27 -28 -24 -27
-18 -44 -51 -20 -0 -0 -0 -0 -0 -0 -0 -0 -0 -0 -0 -0 -0 -0 -0 -2 -0 -30 -139 -85 -81 -82 -71 -76 -59 -38 -29 -25 -22 -18 -33 -0 -0 -0 -0 -0 -0 -0 -32 -0 -16 -19 -0 -2 -5
-7 -0 -0 -0 -0 -0 -0 -0 -0 -0 -0 -0 -0 -0 -0 -0 -0 -0 -0 -0 -0 -0 -133 -73 -65 -82 -84 -73 -81 -51 -27 -16 -12 -20 -42 -0 -0 -0 -0 -0 -72 -1 -0 -0 -0 -0 -0 -0 -0
Wind_Speed
nan nan nan nan nan nan nan nan nan nan nan nan nan nan nan 44 nan nan 36 32 36 29 26 23 25 23 23 22 19 18 16 17 16 19 24 24 23 23 22 nan nan nan nan nan nan 22 21 20 nan
nan nan 66 nan nan nan nan nan nan nan nan nan nan 54 55 nan 48 44 38 34 38 32 27 26 27 25 25 23 21 20 20 19 18 20 23 25 25 23 nan nan nan nan 22 22 22 20 20 18 nan
nan nan nan 65 nan nan nan nan nan nan nan nan nan nan 64 55 48 38 38 36 34 34 29 26 29 28 25 24 22 22 22 22 22 22 24 24 24 nan nan nan nan nan 21 21 21 20 nan nan nan
nan nan nan nan nan nan nan nan nan nan nan nan nan nan nan 58 52 45 38 37 34 31 30 29 29 29 27 25 24 24 24 24 24 24 25 24 nan nan nan nan nan 20 21 21 20 20 20 nan nan
nan nan nan nan nan nan nan nan nan nan nan nan nan nan nan 63 58 47 38 35 35 35 32 30 30 29 27 25 24 23 24 21 24 26 25 23 nan nan nan nan 21 19 21 22 nan 21 nan nan nan
nan nan nan nan nan nan nan nan nan nan nan nan 65 nan nan 55 60 44 37 37 37 38 33 30 31 29 27 27 26 23 22 19 24 23 23 nan nan nan nan nan 20 20 22 22 nan nan nan nan nan
nan nan nan nan nan nan nan nan nan nan nan nan 61 67 60 56 50 43 39 38 40 39 35 37 32 29 27 27 26 24 22 20 19 20 nan nan nan nan nan 20 19 20 21 20 18 nan nan nan nan
nan nan nan nan nan nan nan nan nan nan nan 64 60 62 59 51 39 48 41 44 40 38 41 36 34 29 27 24 25 23 nan nan nan nan nan nan nan nan 17 18 18 18 19 19 17 nan nan nan nan
nan nan nan nan nan nan nan nan nan nan nan nan 59 65 61 54 54 23 30 39 45 44 45 43 38 33 28 25 23 23 nan nan nan nan nan nan nan nan nan nan nan 18 18 17 nan nan nan nan nan
nan nan nan nan nan nan nan nan nan nan nan 64 67 70 65 59 49 38 42 44 38 39 43 44 41 35 31 26 26 24 nan nan nan nan nan nan nan nan nan nan nan 19 18 nan nan nan nan nan nan
nan nan nan nan nan nan nan nan nan nan nan nan 63 61 57 56 48 52 29 42 39 41 46 43 41 36 34 28 28 24 nan nan nan nan nan nan nan nan nan nan nan nan nan nan nan nan nan nan nan
nan nan nan nan nan nan nan 77 nan nan nan nan nan 57 54 55 56 55 43 42 31 46 48 45 44 37 37 30 25 23 nan nan nan nan nan nan nan nan nan nan nan nan nan nan nan nan nan nan nan
nan nan nan nan nan nan nan nan nan nan nan nan nan 59 51 48 51 50 51 48 29 29 51 58 49 39 33 28 26 20 17 17 nan nan nan nan nan nan nan nan nan nan nan nan nan nan nan nan nan
nan nan nan nan nan nan nan nan nan nan nan nan 54 52 52 45 51 50 45 42 43 52 44 48 45 36 31 26 23 20 19 18 nan nan nan nan nan nan nan nan nan nan nan nan nan nan nan nan nan
nan nan nan nan nan nan nan nan nan nan nan nan nan 65 61 51 53 47 37 42 44 34 21 36 37 27 24 24 23 nan nan 18 17 nan nan nan nan nan nan nan nan nan nan nan nan nan nan nan nan
nan nan nan nan nan nan nan nan nan nan nan nan nan 58 65 71 52 53 52 44 46 47 43 21 26 26 26 25 23 nan nan nan nan nan nan nan nan nan nan nan nan nan nan nan nan nan nan nan nan
nan nan nan nan nan nan nan nan nan nan nan nan 72 65 65 72 73 56 51 45 48 43 42 39 25 25 22 24 24 nan nan nan nan nan nan nan nan 24 24 23 nan nan nan nan nan nan nan nan nan
nan nan nan nan nan nan nan nan nan nan nan nan 75 74 71 73 66 62 50 48 42 47 44 42 49 40 26 24 24 28 28 nan 25 nan nan nan nan nan 23 23 23 nan nan 23 24 25 nan nan nan
nan nan nan nan nan nan nan nan nan nan nan nan 78 79 69 70 62 62 65 47 39 31 26 27 35 44 44 33 24 30 23 27 25 24 24 21 nan nan nan nan 23 24 25 25 29 29 nan nan nan
nan nan nan nan nan nan nan nan nan nan nan 69 78 82 nan 64 62 67 63 49 44 44 36 40 33 42 39 33 36 37 32 31 27 23 27 23 24 25 24 nan nan nan nan 30 33 nan nan nan nan
nan nan nan nan 33 nan nan nan nan nan nan nan nan nan nan nan nan nan 48 46 48 44 48 40 30 30 35 38 43 50 47 44 37 31 32 29 28 28 26 23 27 31 33 nan nan nan nan nan nan
nan nan nan 26 nan nan nan nan nan nan nan nan 60 nan nan nan nan nan nan 41 29 33 48 43 43 27 29 34 40 43 33 43 34 34 36 37 33 31 34 36 33 32 36 37 nan nan nan nan nan
nan nan nan nan nan nan nan nan nan nan nan nan nan nan nan nan nan nan nan 45 48 45 36 35 35 33 26 38 30 nan 19 22 32 31 29 19 27 22 29 26 30 33 32 36 34 27 32 36 nan
nan nan nan nan nan nan nan nan nan nan nan nan nan nan nan nan nan nan nan nan 51 52 51 43 38 42 40 32 27 26 23 31 24 24 21 23 27 28 26 32 31 40 28 35 36 41 45 45 nan
nan nan nan nan nan nan nan nan nan nan nan nan nan nan nan nan nan nan nan nan nan nan 44 49 29 24 30 32 30 24 32 29 27 24 25 29 28 30 32 35 35 38 nan nan 46 49 nan nan nan
nan nan nan nan nan nan nan nan nan nan nan nan nan nan nan nan nan nan nan nan nan nan 47 47 48 40 40 36 36 34 30 30 33 33 31 34 34 35 35 nan nan nan nan nan nan nan nan nan nan
nan nan nan nan nan nan nan nan nan nan nan nan nan nan nan nan nan nan nan nan nan nan 45 45 46 51 51 46 46 45 46 41 40 40 40 40 37 nan 36 38 nan nan nan nan nan nan nan nan nan
nan nan nan nan nan nan nan nan nan nan nan nan nan nan nan nan nan nan nan nan nan nan 46 49 55 55 55 52 49 50 48 48 47 46 45 nan nan nan nan nan nan nan nan nan nan nan nan nan nan
nan nan nan nan nan nan nan nan nan nan nan nan nan nan nan nan nan nan nan nan nan nan 48 52 58 59 56 53 52 53 52 50 49 49 nan nan nan nan nan nan nan nan nan nan nan nan nan nan nan
nan nan nan nan nan nan nan nan nan nan nan nan nan nan nan nan nan nan nan nan nan nan 36 38 47 51 50 49 49 50 51 49 51 50 nan nan nan nan nan nan nan nan nan nan nan nan nan nan nan
Wind_Direction
nan nan nan nan nan nan nan nan nan nan nan nan nan nan nan 227 nan nan 224 230 253 252 250 254 266 262 258 258 261 257 265 296 302 305 305 304 298 293 292 nan nan nan nan nan nan 302 299 295 nan
nan nan 235 nan nan nan nan nan nan nan nan nan nan 215 220 nan 219 224 231 243 254 251 249 251 260 259 259 261 261 259 267 277 291 298 299 296 293 291 nan nan nan nan 301 305 299 298 296 291 nan
nan nan nan 226 nan nan nan nan nan nan nan nan nan nan 216 214 215 227 229 243 248 249 240 246 261 261 263 263 264 262 267 269 278 285 285 286 292 nan nan nan nan nan 301 301 295 297 nan nan nan
nan nan nan nan nan nan nan nan nan nan nan nan nan nan nan 211 210 214 236 243 244 238 235 250 256 261 262 264 264 265 263 270 274 276 275 284 nan nan nan nan nan 298 300 295 293 296 296 nan nan
nan nan nan nan nan nan nan nan nan nan nan nan nan nan nan 214 215 219 227 238 246 240 238 244 258 259 263 262 264 265 266 264 269 268 275 283 nan nan nan nan 296 298 296 293 nan 295 nan nan nan
nan nan nan nan nan nan nan nan nan nan nan nan 222 nan nan 211 220 221 222 230 240 241 234 238 253 258 259 263 264 263 264 261 261 269 277 nan nan nan nan nan 295 298 299 298 nan nan nan nan nan
nan nan nan nan nan nan nan nan nan nan nan nan 218 232 231 231 212 209 218 224 229 230 235 233 239 245 254 258 259 259 263 264 267 268 nan nan nan nan nan 290 297 301 301 297 291 nan nan nan nan
nan nan nan nan nan nan nan nan nan nan nan 202 215 226 229 229 234 202 220 219 227 230 232 225 230 234 236 239 255 257 nan nan nan nan nan nan nan nan 282 280 288 294 295 294 290 nan nan nan nan
nan nan nan nan nan nan nan nan nan nan nan nan 210 215 226 237 237 245 215 223 222 228 230 226 225 224 231 232 237 245 nan nan nan nan nan nan nan nan nan nan nan 275 285 290 nan nan nan nan nan
nan nan nan nan nan nan nan nan nan nan nan 199 205 210 231 240 235 237 244 225 225 230 230 221 227 224 226 228 227 229 nan nan nan nan nan nan nan nan nan nan nan 278 280 nan nan nan nan nan nan
nan nan nan nan nan nan nan nan nan nan nan nan 202 212 229 232 232 225 219 223 223 222 224 223 225 224 221 222 218 220 nan nan nan nan nan nan nan nan nan nan nan nan nan nan nan nan nan nan nan
nan nan nan nan nan nan nan 218 nan nan nan nan nan 210 221 228 232 234 253 213 223 222 224 217 217 218 215 214 215 217 nan nan nan nan nan nan nan nan nan nan nan nan nan nan nan nan nan nan nan
nan nan nan nan nan nan nan nan nan nan nan nan nan 200 217 221 228 227 240 229 230 242 227 227 222 210 211 214 211 213 225 229 nan nan nan nan nan nan nan nan nan nan nan nan nan nan nan nan nan
nan nan nan nan nan nan nan nan nan nan nan nan 197 207 211 219 226 234 237 225 225 226 250 231 202 199 206 211 214 212 219 230 nan nan nan nan nan nan nan nan nan nan nan nan nan nan nan nan nan
nan nan nan nan nan nan nan nan nan nan nan nan nan 208 208 217 226 233 244 230 237 236 233 212 205 200 202 215 213 nan nan 237 241 nan nan nan nan nan nan nan nan nan nan nan nan nan nan nan nan
nan nan nan nan nan nan nan nan nan nan nan nan nan 210 213 214 223 223 225 228 235 240 240 232 205 214 209 220 218 nan nan nan nan nan nan nan nan nan nan nan nan nan nan nan nan nan nan nan nan
nan nan nan nan nan nan nan nan nan nan nan nan 201 209 213 217 215 216 226 228 230 241 249 243 228 211 205 205 221 nan nan nan nan nan nan nan nan 261 262 265 nan nan nan nan nan nan nan nan nan
nan nan nan nan nan nan nan nan nan nan nan nan 195 207 206 215 217 215 207 223 230 238 240 251 240 252 226 223 237 232 229 nan 242 nan nan nan nan nan 266 267 275 nan nan 291 292 294 nan nan nan
nan nan nan nan nan nan nan nan nan nan nan nan 190 204 202 209 211 216 218 206 200 207 223 243 247 256 247 233 236 221 234 237 236 239 249 250 nan nan nan nan 277 283 292 296 293 290 nan nan nan
nan nan nan nan nan nan nan nan nan nan nan 178 194 193 nan 202 210 216 217 211 221 223 213 194 228 235 225 226 228 227 236 240 232 231 238 244 268 268 265 nan nan nan nan 286 286 nan nan nan nan
nan nan nan nan 203 nan nan nan nan nan nan nan nan nan nan nan nan nan 215 219 217 227 231 218 226 221 237 224 230 227 229 228 223 229 231 242 250 250 257 273 272 279 282 nan nan nan nan nan nan
nan nan nan 191 nan nan nan nan nan nan nan nan 189 nan nan nan nan nan nan 217 217 219 227 230 228 236 234 239 232 235 227 234 229 237 251 242 247 261 276 263 276 283 283 279 nan nan nan nan nan
nan nan nan nan nan nan nan nan nan nan nan nan nan nan nan nan nan nan nan 210 219 231 232 231 212 202 235 225 243 nan 257 234 243 238 246 274 255 277 279 276 270 275 274 273 281 277 275 291 nan
nan nan nan nan nan nan nan nan nan nan nan nan nan nan nan nan nan nan nan nan 228 231 235 235 226 210 229 238 254 270 261 261 269 260 260 265 276 266 277 280 285 268 270 299 302 302 303 301 nan
nan nan nan nan nan nan nan nan nan nan nan nan nan nan nan nan nan nan nan nan nan nan 234 247 250 234 241 245 247 233 244 251 256 261 263 265 263 269 273 281 292 294 nan nan 298 297 nan nan nan
nan nan nan nan nan nan nan nan nan nan nan nan nan nan nan nan nan nan nan nan nan nan 247 248 245 244 243 240 242 240 237 237 248 269 263 258 254 261 271 nan nan nan nan nan nan nan nan nan nan
nan nan nan nan nan nan nan nan nan nan nan nan nan nan nan nan nan nan nan nan nan nan 237 239 240 239 237 241 241 244 253 261 259 259 257 257 261 nan 275 281 nan nan nan nan nan nan nan nan nan
nan nan nan nan nan nan nan nan nan nan nan nan nan nan nan nan nan nan nan nan nan nan 228 234 238 240 240 239 243 247 251 253 255 257 259 nan nan nan nan nan nan nan nan nan nan nan nan nan nan
nan nan nan nan nan nan nan nan nan nan nan nan nan nan nan nan nan nan nan nan nan nan 227 230 233 236 239 240 242 245 246 250 252 252 nan nan nan nan nan nan nan nan nan nan nan nan nan nan nan
nan nan nan nan nan nan nan nan nan nan nan nan nan nan nan nan nan nan nan nan nan nan 227 237 238 239 238 241 244 246 247 249 253 253 nan nan nan nan nan nan nan nan nan nan nan nan nan nan nan